User: anonymous   Login
Location: Unspecified
(0.0000°N, 0.0000°E)
Time: 19:14:21
(UTC+00:00)
Language:

NAVSTAR 64 (USA 206) - Orbit

View from above orbital plane
View from above orbital plane
View from above satellite
View from above satellite

Ground track
Ground track

The orbit data is extracted from the following two-line orbital elements,

1 35752U 09043A   14296.06443550  .00000014  00000-0  00000+0 0  9395
2 35752 054.2523 198.7662 0038545 018.1851 225.1680 02.00558873 38017
Epoch (UTC): 23 October 2014 01:32:47
Eccentricity: 0.0038545
inclination: 54.2523°
perigee height: 20080 km
apogee height: 20285 km
right ascension of ascending node: 198.7662°
argument of perigee: 18.1851°
revolutions per day: 2.00558873
mean anomaly at epoch: 225.1680°
orbit number at epoch: 3801

The dashed part of the orbit path shows where the satellite is in the earth's shadow,  

DLR